GW3823 Weather Reports


time (UTC)temp
F
wind
direction
speed
knots
gust
knots
rain 1hr
in
rain 24hr
in
rain mn
in
humidity
%
barometer
mb
20260508064305 45 25 2.6 4.3 0.00 0.02 0.00 60 1010.1
20260508063806 44 32 0.9 1.7 0.00 0.02 0.00 80 1019.3
20260508063305 41 187 0.9 1.7 0.00 0.02 0.00 79 1010.1
20260508062805 41 289 0.9 2.6 0.00 0.02 0.00 81 1013.7
20260508062306 42 252 0.0 2.6 0.00 0.02 0.00 81 1010.3
20260508061805 42 48 1.7 2.6 0.00 0.02 0.00 81 1010.0
20260508061306 42 43 0.0 1.7 0.00 0.02 0.00 81 1010.0
20260508060806 42 167 0.9 1.7 0.00 0.02 0.00 80 1010.2
20260508060306 44 99 0.9 1.7 0.00 0.02 0.00 79 1010.0
20260508055805 42 293 0.9 1.7 0.00 0.02 0.00 51 1010.3
20260508055306 44 204 0.9 2.6 0.00 0.02 0.00 77 1010.2
20260508054805 44 20 0.9 2.6 0.00 0.02 0.00 75 1010.2
20260508054305 49 68 1.7 2.6 0.00 0.02 0.00 73 1010.1
20260508053805 45 77 2.6 4.3 0.00 0.02 0.00 61 1010.1
20260508053305 44 21 0.9 4.3 0.00 0.02 0.00 73 1010.0
20260508052806 45 109 1.7 4.3 0.00 0.02 0.00 72 1010.2
20260508052307 45 46 2.6 5.2 0.00 0.02 0.00 72 1015.3
20260508051806 45 39 0.9 5.2 0.00 0.02 0.00 71 1010.1
20260508051306 45 50 2.6 5.2 0.00 0.02 0.00 67 1010.2
20260508050805 45 209 2.6 6.1 0.00 0.02 0.00 64 1010.0
20260508050305 47 329 1.7 6.1 0.00 0.02 0.00 67 1010.4
20260508045805 47 278 3.5 6.1 0.00 0.02 0.01 64 1010.1
20260508045307 46 229 1.7 13.9 0.00 0.02 0.01 62 1010.1
20260508044805 49 180 4.3 7.0 0.00 0.02 0.01 58 1010.1
20260508044306 49 303 2.6 7.0 0.00 0.02 0.01 51 1010.2
20260508043806 49 0 1.7 7.0 0.00 0.02 0.01 56 1010.1
20260508043305 48 236 1.7 6.1 0.00 0.02 0.01 54 1010.2
20260508042805 48 197 2.6 7.8 0.00 0.02 0.01 52 1010.0
20260508042307 50 132 3.5 7.0 0.00 0.02 0.01 50 1010.0
20260508041805 50 281 1.7 7.0 0.00 0.02 0.01 49 1010.2
20260508041305 49 300 2.6 7.0 0.00 0.02 0.01 49 1010.1
20260508040805 49 282 4.3 7.8 0.00 0.02 0.01 49 1019.0
20260508035805 48 214 5.2 7.8 0.00 0.02 0.01 44 1013.7
20260508035306 50 313 4.3 6.1 0.00 0.02 0.01 50 1010.0
20260508034805 50 94 1.7 5.2 0.00 0.02 0.01 50 1010.0
20260508034305 49 349 0.9 4.3 0.00 0.02 0.01 51 1009.9
20260508033805 49 297 1.7 8.7 0.00 0.02 0.01 50 1009.8
20260508032805 48 143 1.7 7.0 0.00 0.02 0.01 50 1009.7
20260508032306 50 42 1.7 4.3 0.00 0.02 0.01 37 1017.3
20260508031805 50 125 0.9 2.6 0.00 0.02 0.01 50 1009.8
20260508031305 50 32 0.9 4.3 0.00 0.02 0.01 36 1017.7
20260508030805 50 236 0.9 4.3 0.00 0.02 0.01 49 1009.8
20260508030305 49 233 1.7 4.3 0.00 0.02 0.01 48 1009.6
20260508025804 49 239 0.9 2.6 0.00 0.02 0.01 47 1009.6
20260508025306 51 320 1.7 4.3 0.00 0.02 0.01 47 1009.6
20260508024805 51 210 2.6 5.2 0.00 0.02 0.01 47 1009.6
20260508024305 51 255 0.9 6.1 0.00 0.02 0.01 47 1009.4
20260508023806 50 292 1.7 5.2 0.00 0.02 0.01 47 1009.4
20260508023305 50 258 1.7 5.2 0.00 0.02 0.01 47 1009.3
20260508022805 50 265 2.6 5.2 0.00 0.02 0.01 46 1009.2
20260508022307 52 307 2.6 4.3 0.00 0.02 0.01 36 1016.9
20260508021806 51 132 1.7 2.6 0.00 0.02 0.01 47 1009.2
20260508021305 51 291 1.7 4.3 0.00 0.02 0.01 35 1017.7
20260508020805 51 230 1.7 4.3 0.00 0.02 0.01 46 1009.1
20260508020304 51 220 2.6 4.3 0.00 0.02 0.01 40 1013.7
20260508015805 51 287 1.7 4.3 0.00 0.02 0.01 44 1009.0
20260508015306 53 254 1.7 4.3 0.00 0.02 0.01 44 1009.1
20260508014805 53 17 0.9 5.2 0.00 0.02 0.01 43 1008.9
20260508013805 52 305 2.6 5.2 0.00 0.02 0.01 44 1009.1
20260508013305 52 347 1.7 5.2 0.00 0.02 0.01 43 1008.9
20260508012805 54 280 2.6 7.8 0.00 0.02 0.01 42 1008.9
20260508012307 53 166 1.7 10.4 0.00 0.02 0.01 42 1008.8
20260508011804 53 156 2.6 10.4 0.00 0.02 0.01 36 1013.0
20260508011305 55 243 2.6 7.0 0.00 0.02 0.01 42 1008.8
20260508010805 52 182 1.7 4.3 0.00 0.02 0.01 42 1008.6
20260508010306 54 29 2.6 7.0 0.00 0.02 0.01 42 1008.7
20260508005805 62 248 1.7 4.3 0.00 0.02 0.01 42 1008.7
20260508005306 62 213 1.7 7.8 0.00 0.02 0.01 42 1008.7
20260508004805 63 177 0.9 7.8 0.00 0.02 0.01 42 1008.7
20260508004305 62 239 1.7 7.8 0.00 0.02 0.01 41 1008.8
20260508003805 62 198 2.6 12.2 0.00 0.02 0.01 41 1008.7
20260508003305 62 179 4.3 12.2 0.00 0.02 0.01 39 1008.8
20260508002805 62 257 1.7 7.0 0.00 0.02 0.01 40 1008.7
20260508002307 62 291 1.7 8.7 0.00 0.02 0.01 39 1008.4
20260508001305 62 162 9.6 20.0 0.00 0.03 0.01 37 1008.4
20260508000805 63 269 2.6 7.0 0.00 0.03 0.01 39 1012.8
20260508000305 54 189 2.6 8.7 0.00 0.03 0.01 39 1008.4
20260507235805 63 296 4.3 15.6 0.00 0.03 0.01 38 1008.6
20260507235307 62 109 4.3 18.2 0.00 0.03 0.01 37 1008.5
20260507234805 63 228 7.8 18.2 0.00 0.04 0.01 35 1012.0
20260507234305 62 251 5.2 18.2 0.00 0.04 0.01 36 1008.4
20260507233805 63 173 7.8 18.2 0.00 0.04 0.01 36 1012.3
20260507233305 63 217 6.1 12.2 0.00 0.05 0.01 34 1008.3
20260507232805 63 190 4.3 20.0 0.00 0.05 0.01 33 1008.4
20260507232306 62 175 3.5 12.2 0.00 0.06 0.01 36 1008.4
20260507231804 63 114 4.3 11.3 0.00 0.06 0.01 31 1008.5
20260507231305 63 223 3.5 13.9 0.00 0.06 0.01 38 1008.5
20260507230805 54 73 2.6 6.1 0.00 0.07 0.01 34 1008.6
20260507225805 63 199 6.1 13.0 0.00 0.08 0.01 38 1008.7
20260507225306 63 178 3.5 13.9 0.00 0.09 0.01 34 1017.2
20260507224304 62 284 5.2 13.9 0.00 0.10 0.01 36 1008.6
20260507223804 63 147 7.0 13.9 0.00 0.10 0.01 36 1008.7
20260507223305 63 174 3.5 12.2 0.00 0.11 0.01 36 1008.7
20260507222804 63 297 6.1 12.2 0.00 0.11 0.01 27 1017.8
20260507222306 63 95 3.5 11.3 0.00 0.12 0.01 39 1008.6
20260507221805 63 319 5.2 11.3 0.00 0.12 0.01 40 1008.7
20260507220305 63 150 4.3 18.2 0.00 0.14 0.01 27 1017.8
20260507215805 63 212 6.1 15.6 0.00 0.15 0.01 39 1008.9
20260507215306 63 134 3.5 15.6 0.00 0.15 0.01 31 1014.8
20260507214305 53 95 4.3 10.4 0.00 0.15 0.01 45 1009.2
20260507213305 62 108 0.9 8.7 0.00 0.15 0.01 44 1009.3
20260507212805 62 66 4.3 10.4 0.00 0.16 0.01 44 1009.3
20260507212307 62 63 2.6 7.8 0.00 0.16 0.01 44 1009.4
20260507211805 63 82 5.2 8.7 0.00 0.16 0.01 42 1009.7
20260507211305 53 175 1.7 13.9 0.00 0.16 0.01 39 1009.5
20260507210804 63 152 5.2 13.9 0.00 0.16 0.01 32 1013.9
20260507210305 63 174 3.5 11.3 0.00 0.16 0.01 39 1009.6
20260507205306 61 165 5.2 13.9 0.00 0.16 0.01 39 1009.6
20260507204804 61 171 5.2 10.4 0.00 0.16 0.01 39 1009.6
20260507204306 61 231 1.7 8.7 0.00 0.17 0.01 40 1009.6
20260507203805 61 155 1.7 8.7 0.00 0.17 0.01 39 1009.8
20260507202306 53 216 2.6 11.3 0.00 0.17 0.01 40 1010.0
20260507201804 61 23 5.2 13.9 0.00 0.18 0.01 40 1010.2
20260507201304 61 156 6.1 18.2 0.00 0.18 0.01 40 1010.2
20260507200805 61 125 6.1 11.3 0.00 0.18 0.01 39 1010.1
20260507200304 61 180 4.3 10.4 0.00 0.18 0.01 40 1009.9
20260507195306 57 187 7.0 18.2 0.00 0.18 0.01 41 1020.3
20260507194304 57 164 6.1 25.2 0.01 0.19 0.01 41 1010.2
20260507193804 57 159 8.7 19.1 0.01 0.19 0.01 41 1010.2
20260507193304 57 190 5.2 14.8 0.01 0.19 0.01 41 1010.3
20260507191804 57 196 6.1 19.1 0.01 0.20 0.01 43 1010.6
20260507191305 57 180 8.7 19.1 0.01 0.20 0.01 47 1010.6
20260507190805 57 186 7.8 20.0 0.01 0.20 0.01 43 1014.3
20260507190304 52 171 4.3 18.2 0.01 0.20 0.01 43 1010.6
20260507185805 52 164 8.7 17.4 0.01 0.20 0.01 41 1010.7
20260507185306 51 200 4.3 10.4 0.01 0.20 0.01 44 1010.5
20260507184806 51 246 5.2 10.4 0.01 0.21 0.01 42 1010.8
20260507183306 51 165 2.6 13.0 0.00 0.20 0.01 46 1010.8
20260507182806 50 198 6.1 17.4 0.00 0.20 0.01 46 1010.9
20260507181806 50 159 9.6 20.0 0.00 0.20 0.01 46 1010.9
20260507181306 50 168 8.7 14.8 0.00 0.20 0.01 45 1011.2
20260507180806 48 199 7.8 14.8 0.00 0.20 0.01 45 1015.8
20260507180306 50 159 4.3 11.3 0.00 0.24 0.01 40 1011.1
20260507175806 48 170 4.3 11.3 0.00 0.24 0.01 45 1011.2
20260507175307 48 171 2.6 10.4 0.00 0.24 0.01 46 1011.2
20260507174806 48 157 4.3 10.4 0.00 0.24 0.01 42 1021.3
20260507174306 48 173 3.5 10.4 0.00 0.24 0.01 49 1011.3
20260507173805 48 160 4.3 7.8 0.00 0.24 0.01 48 1011.4
20260507173306 48 204 3.5 10.4 0.00 0.24 0.01 39 1011.5
20260507172806 48 158 4.3 8.7 0.00 0.25 0.01 49 1011.4
20260507172307 48 179 2.6 7.8 0.00 0.25 0.01 49 1020.9
20260507171805 48 163 2.6 7.8 0.00 0.25 0.01 45 1011.4
20260507171305 48 185 2.6 7.8 0.00 0.25 0.01 45 1021.1
20260507170805 48 136 5.2 7.8 0.00 0.25 0.01 45 1011.3
20260507165805 45 193 2.6 6.1 0.00 0.28 0.01 46 1011.6
20260507165306 44 211 2.6 6.1 0.00 0.28 0.01 49 1011.6
20260507164805 44 199 2.6 7.8 0.01 0.28 0.01 48 1011.8
20260507164306 45 197 1.7 7.8 0.01 0.28 0.01 47 1011.8
20260507163806 44 217 0.9 6.1 0.01 0.28 0.01 46 1011.9
20260507163305 43 51 3.5 6.1 0.01 0.28 0.01 47 1019.0
20260507162805 43 74 2.6 4.3 0.01 0.28 0.01 46 1011.9
20260507162307 43 195 1.7 4.3 0.01 0.28 0.01 50 1017.6
20260507161805 43 51 2.6 4.3 0.01 0.28 0.01 47 1011.8
20260507161305 42 258 1.7 4.3 0.01 0.28 0.01 48 1012.1
20260507160805 43 61 0.9 4.3 0.01 0.28 0.01 48 1012.2
20260507155805 40 231 1.7 4.3 0.01 0.28 0.01 51 1012.4
20260507155307 38 185 1.7 6.1 0.00 0.27 0.00 53 1012.7
20260507154304 38 108 1.7 2.6 0.00 0.27 0.00 55 1012.8
20260507153806 36 86 0.9 7.0 0.00 0.27 0.00 53 1012.9
20260507153305 38 21 2.6 4.3 0.00 0.27 0.00 53 1024.7
20260507152306 38 70 2.6 5.2 0.00 0.27 0.00 57 1013.2
20260507151804 33 38 3.5 5.2 0.00 0.27 0.00 59 1013.3
20260507150804 38 62 0.9 1.7 0.00 0.27 0.00 60 1013.5
20260507150304 37 54 0.9 1.7 0.00 0.27 0.00 55 1013.5
20260507145306 30 28 0.9 4.3 0.00 0.27 0.00 66 1013.6
20260507144804 30 60 1.7 2.6 0.00 0.27 0.00 66 1013.6
20260507144304 30 22 1.7 2.6 0.00 0.27 0.00 67 1013.6
20260507143303 29 224 0.0 0.9 0.00 0.27 0.00 68 1013.7
20260507142804 29 257 0.0 1.7 0.00 0.27 0.00 69 1013.5
20260507142306 29 242 0.9 4.3 0.00 0.27 0.00 70 1013.6
20260507141804 29 205 0.0 1.7 0.00 0.27 0.00 70 1025.3
20260507141304 28 355 0.9 1.7 0.00 0.27 0.00 70 1013.7
20260507140805 29 60 0.0 4.3 0.00 0.27 0.00 71 1013.7
20260507140305 27 47 2.6 4.3 0.00 0.27 0.00 70 1025.1
20260507135804 27 46 1.7 2.6 0.00 0.28 0.00 71 1013.6
20260507135306 27 336 0.9 4.3 0.00 0.28 0.00 71 1013.9
20260507134803 27 55 2.6 4.3 0.00 0.28 0.00 72 1013.7
20260507134304 26 48 1.7 4.3 0.00 0.28 0.00 83 1013.5
20260507133804 26 41 2.6 4.3 0.00 0.28 0.00 73 1013.6
20260507133304 26 61 2.6 4.3 0.00 0.28 0.00 74 1013.7
20260507132805 26 68 2.6 5.2 0.00 0.28 0.00 74 1013.6
20260507132307 25 61 2.6 4.3 0.00 0.28 0.00 76 1013.8
20260507131805 24 63 2.6 4.3 0.00 0.28 0.00 75 1013.5
20260507130803 24 69 3.5 7.8 0.00 0.28 0.00 76 1013.7
20260507130304 24 47 4.3 5.2 0.00 0.28 0.00 77 1013.7
20260507125804 24 54 2.6 7.8 0.00 0.31 0.00 82 1013.6
20260507125307 24 62 3.5 7.8 0.00 0.31 0.00 77 1013.5
20260507124804 23 48 3.5 7.0 0.00 0.31 0.00 77 1013.5
20260507123805 23 63 2.6 7.0 0.00 0.31 0.00 77 1013.3
20260507123304 24 61 3.5 7.0 0.00 0.31 0.00 77 1023.0
20260507122804 23 25 2.6 7.0 0.00 0.31 0.00 78 1013.3
20260507122307 23 49 4.3 7.0 0.00 0.31 0.00 77 1024.2
20260507121804 23 25 1.7 6.1 0.00 0.31 0.00 77 1013.4
20260507121304 23 57 4.3 7.0 0.00 0.31 0.00 80 1013.3
20260507120805 22 61 4.3 7.8 0.00 0.31 0.00 79 1013.3
20260507120303 22 69 5.2 7.0 0.00 0.31 0.00 80 1013.3
20260507115307 22 57 4.3 7.8 0.00 0.34 0.00 79 1013.6
20260507114804 23 74 4.3 6.1 0.00 0.37 0.00 79 1013.3
20260507114305 24 54 3.5 5.2 0.00 0.37 0.00 80 1013.4
20260507112805 24 87 3.5 7.8 0.00 0.37 0.00 78 1013.5
20260507112307 23 67 5.2 8.7 0.00 0.37 0.00 78 1013.4
20260507111804 23 40 2.6 7.0 0.00 0.37 0.00 78 1013.4
20260507110805 23 67 5.2 7.0 0.00 0.37 0.00 79 1013.3
20260507110305 23 69 4.3 7.0 0.00 0.37 0.00 78 1013.2
20260507105803 23 58 4.3 7.0 0.00 0.37 0.00 79 1013.3
20260507105306 24 80 1.7 5.2 0.00 0.37 0.00 77 1020.7
20260507104804 24 59 2.6 6.1 0.00 0.37 0.00 78 1012.9
20260507104304 23 68 4.3 7.0 0.00 0.37 0.00 77 1013.2
20260507103805 24 66 5.2 7.8 0.00 0.37 0.00 77 1013.3
20260507103304 24 72 2.6 7.8 0.00 0.37 0.00 77 1013.2
20260507102804 24 74 4.3 7.8 0.00 0.37 0.00 78 1013.3
20260507102306 23 36 4.3 6.1 0.00 0.37 0.00 78 1013.2
20260507101804 24 58 5.2 7.0 0.00 0.37 0.00 78 1013.3
20260507101304 23 63 3.5 7.0 0.00 0.37 0.00 77 1013.3
20260507100804 24 86 4.3 7.0 0.00 0.37 0.00 78 1013.3
20260507100304 23 68 2.6 6.1 0.00 0.37 0.00 77 1013.3
20260507095306 23 43 2.6 7.0 0.00 0.37 0.00 77 1018.3
20260507094804 24 93 2.6 7.0 0.00 0.37 0.00 78 1013.2
20260507094306 23 69 3.5 7.0 0.00 0.37 0.00 78 1013.3
20260507093805 23 71 4.3 7.0 0.00 0.37 0.00 79 1021.0
20260507093307 23 51 4.3 7.0 0.00 0.37 0.00 77 1013.3
20260507092806 23 64 5.2 7.0 0.00 0.37 0.00 78 1013.2
20260507092307 25 68 3.5 5.2 0.00 0.37 0.00 78 1021.3
20260507091306 23 56 4.3 7.0 0.00 0.37 0.00 76 1018.3
20260507090806 23 60 4.3 6.1 0.00 0.37 0.00 77 1013.2
20260507090306 24 50 3.5 7.0 0.00 0.37 0.00 76 1013.2
20260507085306 24 69 1.7 7.8 0.00 0.37 0.00 75 1013.2
20260507084806 25 42 3.5 7.8 0.00 0.37 0.00 76 1013.2
20260507084307 25 51 4.3 6.1 0.00 0.37 0.00 74 1013.1
20260507083806 26 67 2.6 5.2 0.00 0.37 0.00 75 1013.1
20260507083306 25 63 4.3 7.8 0.00 0.37 0.00 74 1013.3
20260507082806 26 46 3.5 7.8 0.00 0.37 0.00 75 1013.4
20260507081806 26 45 5.2 7.8 0.00 0.37 0.00 75 1013.5
20260507080806 26 20 2.6 7.8 0.00 0.37 0.00 76 1020.2
20260507075806 24 62 4.3 6.1 0.00 0.37 0.00 75 1023.1
20260507075307 25 26 2.6 7.0 0.00 0.37 0.00 75 1013.5
20260507074806 25 15 2.6 6.1 0.00 0.37 0.00 75 1013.6
20260507074306 25 46 2.6 6.1 0.00 0.37 0.00 74 1013.5
20260507073806 27 44 1.7 5.2 0.00 0.37 0.00 74 1013.5
20260507073305 25 95 1.7 7.8 0.00 0.37 0.00 74 1023.5
20260507072806 25 53 3.5 7.8 0.00 0.37 0.00 74 1013.5
20260507072308 25 53 4.3 6.1 0.00 0.37 0.00 74 1013.6
20260507071805 25 61 2.6 5.2 0.00 0.37 0.00 73 1019.1
20260507071306 27 60 3.5 7.0 0.00 0.37 0.00 72 1013.6
20260507070806 27 51 5.2 7.0 0.00 0.37 0.00 70 1020.2
20260507070306 28 53 3.5 8.7 0.00 0.37 0.00 73 1013.5